Weather History for Monroe, MI

Change the Weather History Date:

Tuesday, November 23, 2010

  Actual Average Record
Temperature  
Mean Temperature 46 °F -  
Max Temperature 60 °F 43 °F 74 °F (1931)
Min Temperature 33 °F 30 °F 9 °F (1956)
Degree Days  
Heating Degree Days 18    
Moisture  
Dew Point 36 °F    
Average Humidity 73    
Maximum Humidity 100    
Minimum Humidity 53    
Precipitation  
Precipitation 0.00 in - - ()
Sea Level Pressure  
Sea Level Pressure 29.97 in    
Wind  
Wind Speed 14 mph (West)    
Max Wind Speed 26 mph    
Max Gust Speed 33 mph    
Visibility 10 miles    
Events Rain    
Averages and records for this station are not official NWS values.
T = Trace of Precipitation, MM = Missing Value Source: NWS Daily Summary

Daily Weather History Graph

Daily Weather History Graph

Search for Another Location

Airport:

Trip Planner

Search our weather history database for the weather conditions in past years. The results will help you decide how hot, cold, wet, or windy it might be!

Date:

Astronomy

Nov. 23, 2010 Rise Set
Actual Time 7:33 AM EST 5:06 PM EST
Civil Twilight 7:02 AM EST 5:37 PM EST
Nautical Twilight 6:28 AM EST 6:11 PM EST
Astronomical Twilight 5:54 AM EST 6:45 PM EST
Moon 6:45 PM EST (11/23) 9:31 AM EST (11/23)
Length of Visible Light 10h 35m
Length of Day
9h 33m
Waning Gibbous, 96% of the Moon is Illuminated
Nov 23
Waning Gibbous
Nov 28
Last Quarter
Dec 5
New
Dec 13
First Quarter
Dec 21
Full

Hourly Weather History & Observations

Time (EST) Temp. Windchill Dew Point Humidity Pressure Visibility Wind Dir Wind Speed Gust Speed Precip Events Conditions
12:13 AM 60.8 °F - 57.2 °F 88% 29.70 in 5.0 mi NW 6.9 mph - N/A Rain Heavy Rain
12:34 AM 59.0 °F - 59.0 °F 100% 29.72 in 5.0 mi WNW 10.4 mph - N/A Rain Heavy Rain
12:53 AM 59.0 °F - 59.0 °F 100% 29.70 in 7.0 mi SW 8.1 mph - N/A Rain Rain
1:14 AM 59.0 °F - 59.0 °F 100% 29.71 in 10.0 mi SSW 9.2 mph - N/A Rain Rain
1:33 AM 59.0 °F - 59.0 °F 100% 29.69 in 10.0 mi SSW 10.4 mph - N/A Rain Rain
1:54 AM 59.0 °F - 59.0 °F 100% 29.70 in 7.0 mi SSW 15.0 mph - N/A Rain Rain
2:13 AM 59.0 °F - 59.0 °F 100% 29.70 in 7.0 mi SSW 13.8 mph 18.4 mph N/A Rain Rain
2:34 AM 60.8 °F - 60.8 °F 100% 29.68 in 7.0 mi SSW 13.8 mph 21.9 mph N/A Rain Rain
2:53 AM 60.8 °F - 60.8 °F 100% 29.73 in 10.0 mi SW 18.4 mph 23.0 mph N/A   Overcast
3:14 AM 60.8 °F - 59.0 °F 94% 29.71 in 10.0 mi SW 15.0 mph 24.2 mph N/A   Overcast
3:33 AM 60.8 °F - 59.0 °F 94% 29.71 in 10.0 mi WSW 16.1 mph 23.0 mph N/A   Overcast
4:13 AM 57.2 °F - 53.6 °F 88% 29.75 in 10.0 mi West 16.1 mph 29.9 mph N/A   Overcast
4:34 AM 55.4 °F - 51.8 °F 88% 29.78 in 10.0 mi WNW 19.6 mph 31.1 mph N/A   Mostly Cloudy
4:53 AM 51.8 °F - 46.4 °F 82% 29.79 in 10.0 mi West 16.1 mph 28.8 mph N/A   Scattered Clouds
5:13 AM 50.0 °F - 44.6 °F 82% 29.80 in 10.0 mi West 15.0 mph 20.7 mph N/A   Clear
5:33 AM 48.2 °F - 44.6 °F 87% 29.82 in 10.0 mi West 12.7 mph - N/A   Clear
5:54 AM 46.4 °F 40.1 °F 42.8 °F 87% 29.82 in 10.0 mi West 15.0 mph 20.7 mph N/A   Clear
6:13 AM 46.4 °F 40.7 °F 42.8 °F 87% 29.83 in 10.0 mi West 12.7 mph 16.1 mph N/A   Clear
6:33 AM 46.4 °F 41.1 °F 42.8 °F 87% 29.85 in 10.0 mi West 11.5 mph - N/A   Clear
6:53 AM 44.6 °F 38.1 °F 41.0 °F 87% 29.86 in 10.0 mi WSW 13.8 mph 18.4 mph N/A   Scattered Clouds
7:13 AM 44.6 °F 38.4 °F 37.4 °F 76% 29.88 in 10.0 mi West 12.7 mph - N/A   Scattered Clouds
7:33 AM 42.8 °F 37.5 °F 39.2 °F 87% 29.88 in 10.0 mi West 9.2 mph - N/A   Scattered Clouds
7:54 AM 42.8 °F 37.0 °F 39.2 °F 87% 29.88 in 10.0 mi West 10.4 mph 16.1 mph N/A   Scattered Clouds
8:13 AM 42.8 °F 35.8 °F 37.4 °F 81% 29.89 in 10.0 mi West 13.8 mph - N/A   Scattered Clouds
8:33 AM 42.8 °F 35.1 °F 37.4 °F 81% 29.91 in 10.0 mi WSW 16.1 mph - N/A   Scattered Clouds
8:53 AM 42.8 °F 34.8 °F 35.6 °F 76% 29.93 in 10.0 mi West 17.3 mph 25.3 mph N/A   Clear
9:14 AM 42.8 °F 34.8 °F 35.6 °F 76% 29.94 in 10.0 mi West 17.3 mph 25.3 mph N/A   Scattered Clouds
9:33 AM 42.8 °F 34.3 °F 35.6 °F 76% 29.95 in 10.0 mi West 19.6 mph 27.6 mph N/A   Overcast
9:54 AM 42.8 °F 33.8 °F 33.8 °F 70% 29.96 in 10.0 mi West 21.9 mph - N/A   Scattered Clouds
10:13 AM 42.8 °F 34.3 °F 30.2 °F 61% 29.97 in 10.0 mi West 19.6 mph 32.2 mph N/A   Scattered Clouds
10:34 AM 42.8 °F 34.5 °F 30.2 °F 61% 29.98 in 10.0 mi West 18.4 mph 27.6 mph N/A   Scattered Clouds
10:54 AM 42.8 °F 34.3 °F 30.2 °F 61% 29.99 in 10.0 mi West 19.6 mph 25.3 mph N/A   Clear
11:13 AM 42.8 °F 34.8 °F 30.2 °F 61% 29.99 in 10.0 mi West 17.3 mph 25.3 mph N/A   Scattered Clouds
11:34 AM 42.8 °F 33.8 °F 30.2 °F 61% 30.00 in 10.0 mi West 21.9 mph 28.8 mph N/A   Scattered Clouds
11:53 AM 42.8 °F 33.3 °F 26.6 °F 53% 30.01 in 10.0 mi West 24.2 mph 32.2 mph N/A   Scattered Clouds
12:13 PM 42.8 °F 34.0 °F 28.4 °F 57% 30.00 in 10.0 mi West 20.7 mph 27.6 mph N/A   Clear
12:34 PM 42.8 °F 33.8 °F 28.4 °F 57% 30.01 in 10.0 mi West 21.9 mph 27.6 mph N/A   Clear
12:53 PM 42.8 °F 33.3 °F 28.4 °F 57% 30.02 in 10.0 mi West 24.2 mph 29.9 mph N/A   Scattered Clouds
1:13 PM 42.8 °F 34.0 °F 28.4 °F 57% 30.02 in 10.0 mi West 20.7 mph 28.8 mph N/A   Scattered Clouds
1:34 PM 42.8 °F 32.9 °F 28.4 °F 57% 30.02 in 10.0 mi West 26.5 mph 29.9 mph N/A   Clear
1:54 PM 42.8 °F 33.8 °F 28.4 °F 57% 30.03 in 10.0 mi WNW 21.9 mph 27.6 mph N/A   Clear
2:13 PM 42.8 °F 34.0 °F 28.4 °F 57% 30.04 in 10.0 mi WNW 20.7 mph 27.6 mph N/A   Scattered Clouds
2:34 PM 42.8 °F 33.3 °F 28.4 °F 57% 30.05 in 10.0 mi West 24.2 mph 28.8 mph N/A   Clear
2:53 PM 41.0 °F 30.9 °F 24.8 °F 53% 30.06 in 10.0 mi West 24.2 mph 33.4 mph N/A   Clear
3:13 PM 39.2 °F 30.2 °F 26.6 °F 61% 30.07 in 10.0 mi West 17.3 mph 26.5 mph N/A   Clear
3:33 PM 39.2 °F 29.8 °F 24.8 °F 56% 30.09 in 10.0 mi West 18.4 mph 27.6 mph N/A   Scattered Clouds
3:54 PM 37.4 °F 26.9 °F 24.8 °F 60% 30.10 in 10.0 mi WNW 20.7 mph 28.8 mph N/A   Scattered Clouds
4:13 PM 37.4 °F 28.5 °F 24.8 °F 60% 30.11 in 10.0 mi WNW 15.0 mph - N/A   Scattered Clouds
4:34 PM 35.6 °F 26.2 °F 24.8 °F 65% 30.13 in 10.0 mi WNW 15.0 mph 18.4 mph N/A   Clear
4:54 PM 35.6 °F 25.9 °F 24.8 °F 65% 30.14 in 10.0 mi WNW 16.1 mph 21.9 mph N/A   Clear
5:13 PM 33.8 °F 23.9 °F 23.0 °F 65% 30.15 in 10.0 mi WNW 15.0 mph - N/A   Clear
5:33 PM 33.8 °F 24.3 °F 24.8 °F 70% 30.17 in 10.0 mi WNW 13.8 mph 19.6 mph N/A   Clear
5:53 PM 33.8 °F 24.8 °F 23.0 °F 65% 30.18 in 10.0 mi WNW 12.7 mph 18.4 mph N/A   Clear
6:13 PM 33.8 °F 25.8 °F 23.0 °F 65% 30.19 in 10.0 mi NW 10.4 mph - N/A   Scattered Clouds
6:33 PM 33.8 °F 24.8 °F 23.0 °F 65% 30.21 in 10.0 mi NW 12.7 mph - N/A   Overcast
6:54 PM 33.8 °F 23.5 °F 23.0 °F 65% 30.22 in 10.0 mi WNW 16.1 mph 21.9 mph N/A   Overcast
7:13 PM 33.8 °F 24.3 °F 23.0 °F 65% 30.23 in 10.0 mi WNW 13.8 mph 19.6 mph N/A   Overcast
7:34 PM 33.8 °F 25.3 °F 23.0 °F 65% 30.24 in 10.0 mi WNW 11.5 mph 20.7 mph N/A   Overcast
7:54 PM 33.8 °F 23.9 °F 23.0 °F 65% 30.25 in 10.0 mi NW 15.0 mph 21.9 mph N/A   Overcast
8:13 PM 33.8 °F 24.8 °F 21.2 °F 60% 30.26 in 10.0 mi NW 12.7 mph 19.6 mph N/A   Overcast
8:33 PM 33.8 °F 24.8 °F 21.2 °F 60% 30.27 in 10.0 mi NW 12.7 mph 19.6 mph N/A   Overcast
9:13 PM 33.8 °F 25.8 °F 21.2 °F 60% 30.27 in 10.0 mi NW 10.4 mph - N/A   Overcast
9:33 PM 33.8 °F 26.4 °F 21.2 °F 60% 30.28 in 10.0 mi NW 9.2 mph - N/A   Overcast
9:54 PM 32.0 °F 25.6 °F 21.2 °F 64% 30.28 in 10.0 mi NW 6.9 mph - N/A   Overcast
10:13 PM 33.8 °F 25.8 °F 21.2 °F 60% 30.29 in 10.0 mi NNW 10.4 mph - N/A   Overcast
10:34 PM 32.0 °F 23.6 °F 21.2 °F 64% 30.29 in 10.0 mi NW 10.4 mph 17.3 mph N/A   Overcast
10:54 PM 32.0 °F 23.0 °F 21.2 °F 64% 30.30 in 10.0 mi NNW 11.5 mph 16.1 mph N/A   Overcast
11:13 PM 30.2 °F 22.6 °F 21.2 °F 69% 30.31 in 10.0 mi NW 8.1 mph - N/A   Mostly Cloudy
11:33 PM 30.2 °F 24.3 °F 21.2 °F 69% 30.31 in 10.0 mi NW 5.8 mph - N/A   Scattered Clouds
11:54 PM 30.2 °F 25.4 °F 21.2 °F 69% 30.31 in 10.0 mi NNW 4.6 mph - N/A   Scattered Clouds